This demonstration page uses our WeatherBlox Daily Observations layout. Learn more.

Hourly Observations for July 27, 2020

Temp ( °F °C ) Dew Point ( °F °C ) Humidity (%) Winds ( mph kmh ) Pressure ( in mb ) Visibility ( mi km ) Precip ( " mm )
12:15 am 00:15 Mostly Cloudy 72 22.2 71 21.6 96 96 E 6 9 29.99 1016 10 16.0934 0 0
12:35 am 00:35 Cloudy 71 21.9 69 20.8 94 94 S 3 6 29.99 1016 10 16.0934 0 0
12:55 am 00:55 Cloudy 72 22 69 20.5 91 91 S 6 9 29.99 1016 10 16.0934 0 0
1:15 am 01:15 Cloudy 71 21.8 69 20.5 92 92 S 3 6 30 1016 10 16.0934 0 0
1:35 am 01:35 Cloudy 72 22 69 20.5 91 91 SSW 5 7 29.99 1016 10 16.0934 0 0
1:55 am 01:55 Cloudy 71 21.8 69 20.5 92 92 SW 5 7 30 1016 10 16.0934 0 0
2:15 am 02:15 Cloudy 71 21.7 69 20.5 93 93 Calm 30 1016 10 16.0934 0 0
2:35 am 02:35 Cloudy 72 22 69 20.6 92 92 WSW 3 6 30.01 1016 10 16.0934 0 0
2:55 am 02:55 Cloudy 72 22 69 20.5 91 91 WSW 3 6 30 1016 10 16.0934 0 0
3:15 am 03:15 Cloudy 72 22 69 20.5 91 91 WNW 3 6 29.99 1016 10 16.0934 0 0
3:35 am 03:35 Cloudy 71 21.7 69 20.3 92 92 W 5 7 29.99 1016 10 16.0934 0 0
3:55 am 03:55 Cloudy 71 21.7 69 20.5 93 93 WNW 6 9 29.98 1015 10 16.0934 0 0
4:15 am 04:15 Cloudy 71 21.6 69 20.6 94 94 WNW 5 7 29.98 1015 10 16.0934 0 0
4:35 am 04:35 Cloudy 71 21.6 69 20.7 95 95 NW 3 6 29.98 1015 10 16.0934 0 0
4:55 am 04:55 Cloudy 71 21.7 70 20.9 95 95 Calm 29.99 1016 10 16.0934 0 0
5:15 am 05:15 Cloudy with Mist and Fog 72 22.2 71 21.5 96 96 NNE 8 13 29.99 1016 5 8.0467 0 0
5:35 am 05:35 Cloudy with Mist and Fog 72 22.2 71 21.5 96 96 NNE 8 13 29.99 1016 5 8.0467 0 0
5:55 am 05:55 Cloudy with Mist and Fog 72 22 70 21.2 95 95 NE 8 13 29.99 1016 5 8.0467 0 0
6:15 am 06:15 Mostly Cloudy with Mist and Fog 71 21.7 70 21 96 96 NNE 6 9 29.99 1016 5 8.0467 0 0
6:35 am 06:35 Cloudy with Mist and Fog 71 21.8 70 21.1 96 96 NNE 8 13 30 1016 4 6.43736 0 0
6:55 am 06:55 Cloudy with Mist and Fog 72 22 70 21.3 96 96 NNE 7 11 30.01 1016 5 8.0467 0 0
7:15 am 07:15 Cloudy with Mist and Fog 72 22.1 70 21.3 95 95 NE 7 11 30.02 1017 5 8.0467 0 0
7:35 am 07:35 Cloudy with Mist and Fog 71 21.8 70 21 95 95 NNE 7 11 30.02 1017 5 8.0467 0 0
7:55 am 07:55 Cloudy 71 21.7 69 20.8 95 95 N 8 13 30.02 1017 7 11.26538 0 0
8:15 am 08:15 Cloudy 71 21.6 69 20.7 95 95 NNE 8 13 30.02 1017 7 11.26538 0 0
8:35 am 08:35 Cloudy with Mist and Fog 71 21.7 69 20.7 94 94 NNE 10 17 30.03 1017 4 6.43736 0 0
8:55 am 08:55 Cloudy with Mist and Fog 71 21.5 69 20.7 95 95 NNE 10 17 30.03 1017 3 4.82802 0 0
9:15 am 09:15 Cloudy with Mist and Fog 71 21.7 70 21 96 96 NE 10 17 30.05 1018 2.5 4.02335 0 0
9:35 am 09:35 Cloudy with Mist and Fog 72 22 70 21.1 95 95 NE 12 19 30.05 1018 4 6.43736 0 0
9:55 am 09:55 Cloudy with Mist and Fog 72 22.2 70 21.1 94 94 NE 12 19 30.05 1018 5 8.0467 0 0
10:15 am 10:15 Cloudy 73 22.7 69 20.5 87 87 NE 12 19 30.04 1017 10 16.0934 0 0
10:35 am 10:35 Cloudy 74 23.2 65 18.6 75 75 NE 12 19 30.04 1017 10 16.0934 0 0
10:55 am 10:55 Cloudy 76 24.2 66 19 73 73 NE 13 20 30.04 1017 10 16.0934 0 0
11:15 am 11:15 Cloudy 76 24.3 63 17.1 64 64 NE 13 20 30.04 1017 10 16.0934 0 0
11:35 am 11:35 Cloudy 78 25.3 62 16.5 58 58 ENE 12 19 30.03 1017 10 16.0934 0 0
11:55 am 11:55 Cloudy 78 25.8 62 16.7 57 57 ENE 13 20 30.03 1017 10 16.0934 0 0
12:15 pm 12:15 Cloudy 79 26.2 63 17.2 58 58 ENE 13 20 30.02 1016 10 16.0934 0 0
12:35 pm 12:35 Cloudy 79 26.2 64 17.9 60 60 NE 10 17 30.03 1017 10 16.0934 0 0
12:55 pm 12:55 Cloudy 80 26.5 63 17 56 56 NE 12 19 30.02 1017 10 16.0934 0 0
1:15 pm 13:15 Cloudy 80 26.9 62 16.4 53 53 NE 9 15 30.02 1017 10 16.0934 0 0
1:35 pm 13:35 Partly Cloudy 80 26.6 62 16.8 55 55 ENE 9 15 30 1016 10 16.0934 0 0
1:55 pm 13:55 Sunny 80 26.9 64 17.5 56 56 ENE 8 13 29.99 1016 10 16.0934 0 0
2:15 pm 14:15 Sunny 81 27.2 64 17.5 55 55 ENE 9 15 29.99 1016 10 16.0934 0 0
2:35 pm 14:35 Hazy 81 27.2 64 18 57 57 NE 7 11 30 1016 5 8.0467 0 0
2:55 pm 14:55 Mostly Cloudy 81 27.3 65 18.5 59 59 ENE 10 17 29.98 1015 10 16.0934 0 0
3:15 pm 15:15 Mostly Cloudy with Haze 82 27.5 66 19 60 60 ENE 9 15 29.98 1015 5 8.0467 0 0
3:35 pm 15:35 Partly Cloudy 81 27.4 66 18.7 59 59 E 9 15 29.98 1015 10 16.0934 0 0
3:55 pm 15:55 Sunny 82 27.7 65 18.5 57 57 E 8 13 29.96 1015 10 16.0934 0 0
4:15 pm 16:15 Partly Cloudy 82 28 66 19 58 58 ENE 9 15 29.96 1015 10 16.0934 0 0
4:35 pm 16:35 Partly Cloudy 82 27.9 66 18.7 57 57 ENE 12 19 29.96 1015 10 16.0934 0 0
4:55 pm 16:55 Mostly Cloudy 81 27.3 66 19 61 61 E 10 17 29.95 1014 10 16.0934 0 0
5:15 pm 17:15 Mostly Cloudy 82 28 66 18.8 57 57 E 7 11 29.95 1014 10 16.0934 0 0
5:35 pm 17:35 Partly Cloudy 82 27.9 67 19.2 59 59 ENE 9 15 29.94 1014 10 16.0934 0 0
5:55 pm 17:55 Partly Cloudy 82 27.5 66 19 60 60 E 10 17 29.95 1014 10 16.0934 0 0
6:15 pm 18:15 Partly Cloudy 82 27.7 66 18.8 58 58 E 8 13 29.94 1014 10 16.0934 0 0
6:35 pm 18:35 Sunny 82 27.5 65 18.4 58 58 ENE 7 11 29.94 1014 10 16.0934 0 0
6:55 pm 18:55 Sunny 81 27.3 64 17.6 55 55 E 8 13 29.93 1013 10 16.0934 0 0
7:15 pm 19:15 Sunny 81 27 63 17.4 56 56 E 8 13 29.93 1014 10 16.0934 0 0
7:35 pm 19:35 Sunny 80 26.6 64 18 59 59 E 7 11 29.93 1014 10 16.0934 0 0
7:55 pm 19:55 Sunny 79 26 64 18 61 61 ESE 6 9 29.93 1013 10 16.0934 0 0
8:15 pm 20:15 Sunny 77 24.9 64 18 66 66 E 6 9 29.94 1014 10 16.0934 0 0
8:35 pm 20:35 Sunny 75 23.7 65 18.3 72 72 ESE 5 7 29.95 1014 10 16.0934 0 0
8:55 pm 20:55 Sunny 73 22.6 65 18.4 77 77 ESE 7 11 29.97 1015 10 16.0934 0 0
9:15 pm 21:15 Clear 71 21.5 65 18.5 83 83 ESE 5 7 29.97 1015 10 16.0934 0 0
9:35 pm 21:35 Clear 71 21.7 64 17.8 79 79 SE 6 9 29.97 1015 10 16.0934 0 0
9:55 pm 21:55 Clear 70 21.1 64 17.9 82 82 SE 3 6 29.99 1016 10 16.0934 0 0
10:15 pm 22:15 Clear 68 20.1 64 18 88 88 ESE 5 7 30 1016 10 16.0934 0 0
10:35 pm 22:35 Clear 67 19.4 64 17.5 89 89 ESE 6 9 30 1016 10 16.0934 0 0
10:55 pm 22:55 Clear 67 19.2 64 17.7 91 91 ESE 5 7 30.01 1016 10 16.0934 0 0
11:15 pm 23:15 Clear 67 19.7 65 18.2 91 91 ESE 6 9 30.02 1017 10 16.0934 0 0
11:35 pm 23:35 Clear 68 19.9 65 18.2 90 90 SE 6 9 30.02 1017 10 16.0934 0 0
11:55 pm 23:55 Clear 67 19.5 65 18.1 92 92 SE 5 7 30.01 1016 10 16.0934 0 0

Powered by AerisWeather